Flag for Finland Weather past 2 weeks in Mariehamn, Finland

Now
61 °F

Scattered clouds.


Feels Like: 61 °F
Forecast: 48 / 61 °F
Wind: 14 mph from North

Location: Mariehamn / Aland Island

Current Time: Aug 29, 2014 at 5:10:38 PM

Latest Report: Aug 29, 2014 at 4:20 PM


Visibility: N/A

Pressure: 29.95 "Hg

Humidity: 63%

Dew point: 48 °F

Location of MariehamnLocation

Historic Weather in Mariehamn — Graph

°F

Mariehamn temperature yesterday

Maximum temperature yesterday: 59 °F (at 1:20 AM)
Minimum temperature yesterday: 55 °F (at 1:20 PM)
Average temperature yesterday: 58 °F

Past Weeks' High & Low Weather Summary

 TemperatureHumidityPressure
High70 °F (Aug 14, 4:20 PM)100% (Aug 15, 4:20 AM)29.95 "Hg (Aug 15, 4:20 AM)
Low43 °F (Aug 25, 5:50 AM)40% (Aug 16, 3:50 PM)29.30 "Hg (Aug 19, 3:50 AM)
Average59 °F81%29.60 "Hg
* Reported Aug 14 3:20 PM — Aug 29 3:50 PM, Mariehamn, Weather by CustomWeather, © 2014

Note: Actual official high and low records may vary slightly from our data, if they occured in-between our weather recording intervals... More about our weather records

Advertising

Mariehamn weather history for previous 24 hours

 ConditionsComfort  
Time TempWeatherWind HumidityBarometerVisibility
3:50 PM
Aug 29
61 °FScattered clouds.14 mph63%29.95 "HgN/A
3:20 PM63 °FScattered clouds.13 mph64%29.95 "HgN/A
2:50 PM63 °FScattered clouds.13 mph59%29.95 "HgN/A
2:20 PM61 °FPartly sunny.12 mph63%29.95 "HgN/A
1:50 PM63 °FPartly sunny.13 mph64%29.95 "HgN/A
1:20 PM61 °FPartly sunny.13 mph68%29.95 "HgN/A
12:50 PM61 °FPartly sunny.13 mph68%29.92 "HgN/A
12:20 PM61 °FPartly sunny.13 mph72%29.92 "HgN/A
11:50 AM61 °FPassing clouds.12 mph72%29.92 "HgN/A
11:20 AM61 °FPassing clouds.12 mph77%29.92 "HgN/A
10:50 AM59 °FPassing clouds.13 mph82%29.92 "HgN/A
9:20 AM57 °FPassing clouds.7 mph94%29.92 "HgN/A
8:50 AM55 °FBroken clouds.5 mph100%29.92 "HgN/A
8:20 AM55 °FRain showers. Partly sunny.6 mph94%29.92 "HgN/A
7:50 AM55 °FLight rain. Partly sunny.10 mph94%29.92 "HgN/A
7:20 AM55 °FPassing clouds.2 mph94%29.92 "HgN/A
6:50 AM55 °FPassing clouds.6 mph94%29.92 "HgN/A
6:20 AM54 °FClear.5 mph94%29.92 "Hg10 mi
5:50 AM55 °FClear.6 mph94%29.89 "Hg10 mi
5:20 AM54 °FClear.3 mph100%29.89 "Hg10 mi
4:50 AM55 °FClear.6 mph94%29.89 "Hg10 mi
4:20 AM57 °FPassing clouds.6 mph88%29.89 "HgN/A
3:50 AM57 °FPartly cloudy.8 mph94%29.89 "HgN/A
3:20 AM59 °FPartly cloudy.7 mph88%29.89 "HgN/A
2:50 AM59 °FPassing clouds.7 mph88%29.89 "HgN/A
2:20 AM59 °FPartly cloudy.7 mph88%29.89 "HgN/A
1:50 AM59 °FPassing clouds.8 mph88%29.89 "HgN/A
1:20 AM59 °FPartly cloudy.9 mph88%29.86 "HgN/A
12:50 AM59 °FPartly cloudy.8 mph88%29.86 "HgN/A
12:20 AM59 °FPassing clouds.9 mph88%29.86 "HgN/A
11:50 PM
Aug 28
57 °FPartly cloudy.9 mph94%29.86 "HgN/A
11:20 PM57 °FPassing clouds.9 mph94%29.86 "HgN/A
10:50 PM57 °FOvercast.10 mph94%29.86 "HgN/A
10:20 PM57 °FOvercast.10 mph94%29.86 "HgN/A
9:50 PM57 °FPartly sunny.10 mph94%29.86 "HgN/A
9:20 PM57 °FPartly sunny.12 mph94%29.86 "HgN/A
8:50 PM57 °FMostly cloudy.12 mph94%29.86 "HgN/A
8:20 PM57 °FOvercast.10 mph94%29.86 "HgN/A
7:50 PM57 °FSprinkles. Overcast.13 mph94%29.86 "HgN/A
7:20 PM59 °FOvercast.10 mph88%29.83 "HgN/A
6:20 PM59 °FOvercast.14 mph88%29.83 "HgN/A
5:50 PM59 °FOvercast.14 mph88%29.83 "HgN/A
5:20 PM59 °FOvercast.12 mph88%29.83 "HgN/A
Weather by CustomWeather, © 2014

See weather overviewHow to use our weather pages